{"data":{"norad_id":59807,"intl_designator":"2024-094C","name":"2024-094C","alt_names":[],"object_type":"PAYLOAD","status":"ACTIVE","operator":null,"country":"PRC","launch_date":"2024-05-20","launch_site_code":"TAISC","launch_vehicle":null,"mission":null,"orbit_class":"UNKNOWN","rcs_meters":null,"size_class":null,"mass_kg":null,"dimensions":null,"purposes":[],"wikipedia_slug":null,"has_3d_model":false,"image_url":null,"decayed_at":null,"tle_current":{"epoch":"2026-05-25T04:35:27.329856Z","epoch_age_seconds":54591,"freshness":"FRESH","line1":"1 59807U 24094C   26145.19128854  .00006109  00000+0  31644-3 0  9990","line2":"2 59807  97.3927 216.9585 0001429 310.6985  49.4124 15.16551926111673","mean_motion":15.16551926,"eccentricity":0.0001429,"inclination_deg":97.3927,"raan_deg":216.9585,"arg_perigee_deg":310.6985,"mean_anomaly_deg":49.4124,"bstar":0.00031644,"rev_number":11167,"period_min":94.952238384484,"perigee_km":515.28585287492,"apogee_km":517.25627469955,"semimajor_km":6894.4080637872,"source":"CELESTRAK","updated_at":"2026-05-25T13:38:01.684627Z"}}}